Location: Wildlife_Club
(35.6000°N, 81.4330°W)
Time: 21:03:08
(UTC-04:00)

Amateur Radio Satellites - All Passes

Search period start: 25 October 2014 20:33
Search period end: 26 October 2014 20:33
Location: Wildlife_Club, 35.6000°N, 81.4330°W

Satellite Date Start Highest point End Downlink Frequencies (MHz)
Time Altitude Azimuth
KITSAT 1 25 Oct 20:51:06 20:57:56 29° 48° (NE) 21:04:42 435.175 FM
RS-15 25 Oct 21:03:15 21:11:14 24° 102° (ESE) 21:19:05 29.354 - 29.394 USB, Beacon 29.352 USB
Oscar 11 25 Oct 21:11:06 21:12:20 11° 65° (ENE) 21:13:33 145.825 FM, Beacon 2401.500 USB
SO-50 25 Oct 21:27:31 21:31:13 21° 50° (NE) 21:34:56 436.795 FM
HO-68 25 Oct 21:43:01 21:50:10 85° 255° (WSW) 21:57:24 435.675 MHz FM
STRAND 1 25 Oct 21:45:42 21:48:29 15° 296° (WNW) 21:51:16 ?
ZACube-1 25 Oct 22:00:59 22:04:09 19° 68° (ENE) 22:07:17 437.345 MHz
UKube-1 25 Oct 22:03:05 22:07:17 52° 74° (ENE) 22:11:32 145.840 MHz, 145.915 MHz
Oscar 11 25 Oct 22:43:43 22:47:58 57° 260° (W) 22:52:15 145.825 FM, Beacon 2401.500 USB
FUNcube-1 25 Oct 22:43:57 22:48:26 55° 75° (ENE) 22:52:52 145.950 - 145.970 MHz USB
KITSAT 1 25 Oct 22:45:52 22:53:48 63° 247° (WSW) 23:01:42 435.175 FM
UOSAT-12 25 Oct 22:47:02 22:49:10 13° 44° (NE) 22:51:17 437.025 FM, 437.400 FM
SO-50 25 Oct 23:07:20 23:11:58 45° 245° (WSW) 23:16:36 436.795 FM
RS-15 25 Oct 23:11:16 23:22:19 78° 300° (WNW) 23:33:17 29.354 - 29.394 USB, Beacon 29.352 USB
ZACube-1 25 Oct 23:36:00 23:40:15 37° 262° (W) 23:44:28 437.345 MHz
HO-68 25 Oct 23:36:20 23:38:43 12° 270° (W) 23:41:06 435.675 MHz FM
UKube-1 25 Oct 23:42:21 23:43:44 11° 268° (W) 23:45:08 145.840 MHz, 145.915 MHz
MaSat-1 26 Oct 00:11:50 00:16:02 71° 293° (WNW) 00:19:50 437.345 MHz
FUNcube-1 26 Oct 00:23:23 00:25:03 12° 268° (W) 00:26:42 145.950 - 145.970 MHz USB
UOSAT-12 26 Oct 00:25:11 00:29:54 80° 242° (WSW) 00:34:30 437.025 FM, 437.400 FM
RS-15 26 Oct 01:28:38 01:36:43 23° 326° (NW) 01:44:53 29.354 - 29.394 USB, Beacon 29.352 USB
Oscar 10/S400 26 Oct 01:38:42 02:45:43 24° 243° (WSW) 05:37:30 145.825 - 145.975 CW/USB, Beacon 145.810 USB
JAS-1B 26 Oct 02:13:33 02:19:47 32° 99° (E) 02:26:58 435.800 - 435.900 CW/SSB
Oscar 19 26 Oct 02:25:18 02:29:59 35° 98° (E) 02:34:38 437.125 CW, 437.150 USB
AO-27 26 Oct 02:46:36 02:50:40 23° 95° (E) 02:54:41 436.795 MHz FM
AO-Echo 26 Oct 02:56:29 03:01:27 39° 98° (E) 03:06:22 ?
Oscar 16 26 Oct 03:10:58 03:16:06 77° 285° (WNW) 03:21:11 437.025 USB, Beacon 2401.1428
Sapphire 26 Oct 03:11:42 03:15:44 22° 106° (ESE) 03:19:47 437.095 MHz 1200 baud AX-25 AFSK
Uribyol 2 26 Oct 03:32:45 03:37:58 70° 102° (ESE) 03:43:07 436.500 FM
PCSat 26 Oct 03:32:59 03:37:57 38° 110° (ESE) 03:42:56 145.825 MHz
ITAMSAT 1 26 Oct 03:39:06 03:44:20 76° 103° (ESE) 03:49:31 435.822 SSB
RS-15 26 Oct 03:51:31 03:55:22 12° 3° (N) 03:59:16 29.354 - 29.394 USB, Beacon 29.352 USB
JAS-1B 26 Oct 04:03:53 04:10:19 45° 289° (WNW) 04:17:56 435.800 - 435.900 CW/SSB
Oscar 19 26 Oct 04:05:06 04:09:05 24° 293° (WNW) 04:13:04 437.125 CW, 437.150 USB
Gurwin Techsat 1B 26 Oct 04:06:16 04:11:36 72° 102° (ESE) 04:16:53 435.225 FM
TMSAT-1 26 Oct 04:16:41 04:21:59 67° 102° (ESE) 04:27:14 436.925 FM
AO-7 26 Oct 04:22:26 04:28:06 20° 94° (E) 04:33:45 29.400 - 29.500 MHz
AO-27 26 Oct 04:25:26 04:30:14 37° 290° (WNW) 04:34:59 436.795 MHz FM
AO-Echo 26 Oct 04:35:47 04:39:55 24° 293° (WNW) 04:44:02 ?
Uosat F 26 Oct 04:44:08 04:46:56 15° 93° (E) 04:49:42 435.120 FM
Sapphire 26 Oct 04:53:41 04:58:48 43° 301° (WNW) 05:03:59 437.095 MHz 1200 baud AX-25 AFSK
Uribyol 2 26 Oct 05:14:30 05:16:47 13° 298° (WNW) 05:19:03 436.500 FM
PCSat 26 Oct 05:16:54 05:21:25 27° 306° (NW) 05:25:58 145.825 MHz
ITAMSAT 1 26 Oct 05:21:12 05:23:07 12° 298° (WNW) 05:25:02 435.822 SSB
OPAL 26 Oct 05:31:01 05:36:03 57° 71° (ENE) 05:41:03 ?
Gurwin Techsat 1B 26 Oct 05:48:34 05:50:53 13° 298° (WNW) 05:53:12 435.225 FM
TMSAT-1 26 Oct 05:58:38 06:01:17 14° 297° (WNW) 06:03:55 436.925 FM
JAS-2 26 Oct 06:02:35 06:09:33 34° 95° (E) 06:16:21 435.800 - 435.900 CW/SSB, 435.910 FM
RS-15 26 Oct 06:04:28 06:13:33 27° 39° (NE) 06:22:51 29.354 - 29.394 USB, Beacon 29.352 USB
AO-7 26 Oct 06:13:12 06:21:31 76° 290° (WNW) 06:29:49 29.400 - 29.500 MHz
Uosat F 26 Oct 06:21:04 06:25:59 53° 287° (WNW) 06:30:52 435.120 FM
Hamsat 26 Oct 06:38:22 06:42:06 30° 97° (E) 06:45:49 145.90 MHz
OPAL 26 Oct 07:12:26 07:15:12 15° 265° (W) 07:17:57 ?
STRAND 1 26 Oct 07:17:39 07:22:43 64° 74° (ENE) 07:27:48 ?
PANSAT 26 Oct 07:19:38 07:22:25 19° 166° (SSE) 07:25:11 not established
Saudisat 1A 26 Oct 07:22:49 07:27:00 46° 115° (ESE) 07:31:13 436.775 MHz
JAS-2 26 Oct 07:47:10 07:54:34 48° 290° (WNW) 08:01:53 435.800 - 435.900 CW/SSB, 435.910 FM
AO-7 26 Oct 08:08:43 08:12:55 15° 308° (NW) 08:17:08 29.400 - 29.500 MHz
Hamsat 26 Oct 08:14:53 08:17:48 19° 291° (WNW) 08:20:45 145.90 MHz
RS-15 26 Oct 08:16:09 08:27:26 89° 242° (WSW) 08:39:14 29.354 - 29.394 USB, Beacon 29.352 USB
SO-67 26 Oct 08:27:12 08:30:39 80° 101° (E) 08:34:05 435.3500 MHz FM
PANSAT 26 Oct 08:58:47 09:02:05 28° 179° (S) 09:05:23 not established
STRAND 1 26 Oct 09:00:09 09:02:17 13° 268° (W) 09:04:25 ?
Saudisat 1A 26 Oct 09:03:52 09:06:47 17° 312° (NW) 09:09:44 436.775 MHz
HO-68 26 Oct 09:15:22 09:20:36 21° 94° (E) 09:25:48 435.675 MHz FM
UKube-1 26 Oct 09:56:43 09:57:57 11° 92° (E) 09:59:10 145.840 MHz, 145.915 MHz
MaSat-1 26 Oct 10:00:40 10:03:09 68° 249° (WSW) 10:05:30 437.345 MHz
RS-15 26 Oct 10:31:14 10:38:19 19° 260° (W) 10:45:36 29.354 - 29.394 USB, Beacon 29.352 USB
Oscar 11 26 Oct 10:34:31 10:38:20 30° 97° (E) 10:42:08 145.825 FM, Beacon 2401.500 USB
FUNcube-1 26 Oct 10:38:14 10:39:57 12° 92° (E) 10:41:39 145.950 - 145.970 MHz USB
PANSAT 26 Oct 10:38:50 10:41:46 21° 192° (SSW) 10:44:43 not established
HO-68 26 Oct 11:01:37 11:08:41 63° 289° (WNW) 11:15:44 435.675 MHz FM
KITSAT 1 26 Oct 11:17:00 11:23:23 27° 105° (ESE) 11:29:46 435.175 FM
ZACube-1 26 Oct 11:28:05 11:32:13 52° 100° (E) 11:36:15 437.345 MHz
UKube-1 26 Oct 11:30:09 11:34:25 53° 286° (WNW) 11:38:38 145.840 MHz, 145.915 MHz
ISS 26 Oct 11:31:58 11:34:19 18° 129° (SE) 11:36:42 145.800 FM
SO-50 26 Oct 11:43:00 11:43:41 10° 106° (ESE) 11:44:23 436.795 FM
Oscar 10/S400 26 Oct 11:50:08 12:14:03 28° 153° (SSE) 12:29:09 145.825 - 145.975 CW/USB, Beacon 145.810 USB
Sapphire 26 Oct 12:03:40 12:05:24 11° 45° (NE) 12:07:08 437.095 MHz 1200 baud AX-25 AFSK
Oscar 11 26 Oct 12:11:13 12:14:17 19° 291° (WNW) 12:17:22 145.825 FM, Beacon 2401.500 USB
FUNcube-1 26 Oct 12:12:33 12:16:33 43° 287° (WNW) 12:20:29 145.950 - 145.970 MHz USB
PCSat 26 Oct 12:24:29 12:28:13 19° 50° (NE) 12:31:55 145.825 MHz
Oscar 16 26 Oct 12:49:15 12:51:21 13° 63° (ENE) 12:53:26 437.025 USB, Beacon 2401.1428
JAS-1B 26 Oct 12:59:50 13:03:04 15° 63° (ENE) 13:06:14 435.800 - 435.900 CW/SSB
ZACube-1 26 Oct 13:06:48 13:08:06 11° 295° (WNW) 13:09:22 437.345 MHz
ISS 26 Oct 13:07:43 13:10:48 36° 324° (NW) 13:13:55 145.800 FM
KITSAT 1 26 Oct 13:10:14 13:18:11 60° 302° (WNW) 13:26:10 435.175 FM
SO-50 26 Oct 13:19:08 13:23:34 66° 301° (WNW) 13:28:09 436.795 FM
Oscar 19 26 Oct 13:39:18 13:44:02 39° 71° (ENE) 13:48:47 437.125 CW, 437.150 USB
Sapphire 26 Oct 13:44:15 13:49:42 79° 63° (ENE) 13:55:07 437.095 MHz 1200 baud AX-25 AFSK
AO-27 26 Oct 14:01:57 14:06:13 26° 68° (ENE) 14:10:30 436.795 MHz FM
PCSat 26 Oct 14:06:41 14:12:02 60° 247° (WSW) 14:17:19 145.825 MHz
AO-Echo 26 Oct 14:06:42 14:11:06 35° 70° (ENE) 14:15:40 ?
Oscar 16 26 Oct 14:24:54 14:30:02 72° 258° (WSW) 14:35:12 437.025 USB, Beacon 2401.1428
UOSAT-12 26 Oct 14:33:14 14:37:46 63° 117° (ESE) 14:42:25 437.025 FM, 437.400 FM
JAS-1B 26 Oct 14:47:18 14:53:16 60° 258° (WSW) 14:58:52 435.800 - 435.900 CW/SSB
Uribyol 2 26 Oct 14:47:34 14:52:46 78° 75° (ENE) 14:58:01 436.500 FM
ITAMSAT 1 26 Oct 14:54:04 14:59:16 85° 76° (ENE) 15:04:31 435.822 SSB
KITSAT 1 26 Oct 15:11:25 15:15:24 14° 324° (NW) 15:19:24 435.175 FM
AO-7 26 Oct 15:18:50 15:24:52 23° 57° (ENE) 15:30:54 29.400 - 29.500 MHz
Oscar 19 26 Oct 15:19:36 15:23:27 21° 265° (W) 15:27:20 437.125 CW, 437.150 USB
Gurwin Techsat 1B 26 Oct 15:24:22 15:29:40 84° 76° (ENE) 15:35:00 435.225 FM
Sapphire 26 Oct 15:30:56 15:32:21 11° 258° (WSW) 15:33:46 437.095 MHz 1200 baud AX-25 AFSK
TMSAT-1 26 Oct 15:34:25 15:39:42 77° 75° (ENE) 15:45:01 436.925 FM
AO-27 26 Oct 15:40:54 15:45:33 33° 263° (W) 15:50:14 436.795 MHz FM
AO-Echo 26 Oct 15:46:11 15:49:56 22° 266° (W) 15:53:46 ?
Saudisat 1A 26 Oct 15:52:55 15:55:59 18° 49° (NE) 15:59:03 436.775 MHz
Uosat F 26 Oct 15:54:53 15:57:53 16° 64° (ENE) 16:00:55 435.120 FM
UOSAT-12 26 Oct 16:15:34 16:18:20 15° 314° (NW) 16:21:09 437.025 FM, 437.400 FM
AO-7 26 Oct 17:08:34 17:16:49 74° 254° (WSW) 17:25:07 29.400 - 29.500 MHz
TMSAT-1 26 Oct 17:19:11 17:20:08 10° 270° (W) 17:21:04 436.925 FM
Hamsat 26 Oct 17:29:59 17:32:30 16° 68° (ENE) 17:35:02 145.90 MHz
Uosat F 26 Oct 17:31:19 17:36:12 52° 259° (W) 17:41:07 435.120 FM
Saudisat 1A 26 Oct 17:31:33 17:35:45 44° 245° (WSW) 17:39:56 436.775 MHz
OPAL 26 Oct 17:45:04 17:48:26 18° 96° (E) 17:51:47 ?
JAS-2 26 Oct 17:55:36 18:01:23 61° 72° (ENE) 18:07:59 435.800 - 435.900 CW/SSB, 435.910 FM
ISS 26 Oct 18:03:23 18:04:35 12° 23° (NNE) 18:05:47 145.800 FM
SO-67 26 Oct 18:58:02 19:00:09 16° 70° (ENE) 19:02:16 435.3500 MHz FM
Hamsat 26 Oct 19:04:15 19:08:08 36° 262° (W) 19:12:01 145.90 MHz
AO-7 26 Oct 19:09:11 19:10:44 11° 270° (W) 19:12:18 29.400 - 29.500 MHz
OPAL 26 Oct 19:22:48 19:27:28 42° 290° (WNW) 19:32:06 ?
STRAND 1 26 Oct 19:31:50 19:36:12 27° 96° (E) 19:40:31 ?
ISS 26 Oct 19:38:28 19:41:48 68° 41° (NE) 19:45:07 145.800 FM
JAS-2 26 Oct 19:43:16 19:47:05 17° 271° (W) 19:51:12 435.800 - 435.900 CW/SSB, 435.910 FM
HO-68 26 Oct 19:44:14 19:46:50 12° 55° (NE) 19:49:27 435.675 MHz FM
